Home   Weather   Fairfield   Past weeks
Flag for Grenada

Past Weather in Fairfield, Grenada — Yesterday and Last 2 Weeks

Now
77 °F

Passing clouds.


Feels Like: 78 °F
Forecast: 79 / 72 °F
Wind: 3 mph from Northeast

Location: Point Salines Airport

Current Time: Mar 28, 2020 at 11:30:31 pm

Latest Report: Mar 28, 2020 at 10:00 pm


Visibility: N/A

Pressure: 29.95 "Hg

Humidity: 89%

Dew Point: 73 °F

Location of FairfieldLocation

Past Weather in Fairfield — Graph

°F

Fairfield Temperature Yesterday

Maximum temperature yesterday: 84 °F (at 10:00 am)
Minimum temperature yesterday: 75 °F (at 4:00 am)
Average temperature yesterday: 80 °F

High & Low Weather Summary for the Past Weeks

 TemperatureHumidityPressure
High88 °F (Mar 19, 12:00 pm)100% (Mar 15, 1:00 am)32.52 "Hg (Mar 15, 1:00 am)
Low73 °F (Mar 16, 2:00 am)55% (Mar 19, 2:00 pm)29.80 "Hg (Mar 27, 4:00 pm)
Average80 °F76%29.96 "Hg
* Reported Mar 13 10:00 pm — Mar 28 10:00 pm, Fairfield. Weather by CustomWeather, © 2020

Note: Actual official high and low records may vary slightly from our data, if they occured in-between our weather recording intervals... More about our weather records

Fairfield Weather History for the Previous 24 Hours

Scroll right to see more
 ConditionsComfort  
Time TempWeatherWind HumidityBarometerVisibility
10:00 pm
Sat, Mar 28
77 °FPassing clouds.3 mph89%29.95 "HgN/A
9:00 pm77 °FPassing clouds.8 mph89%29.92 "HgN/A
8:00 pm77 °FSprinkles. Partly cloudy.6 mph89%29.92 "HgN/A
7:00 pm79 °FPassing clouds.7 mph84%29.89 "HgN/A
5:00 pm84 °FPassing clouds.12 mph70%29.86 "HgN/A
4:00 pm84 °FScattered clouds.16 mph70%29.86 "HgN/A
3:00 pm84 °FPassing clouds.12 mph70%29.86 "HgN/A
2:00 pm82 °FBroken clouds.13 mph79%29.89 "HgN/A
1:00 pm79 °FLight rain. Broken clouds.15 mph89%29.92 "HgN/A
12:00 pm86 °FBroken clouds.17 mph66%29.92 "HgN/A
11:00 am84 °FPartly sunny.12 mph66%29.95 "HgN/A
10:00 am84 °FPartly sunny.12 mph66%29.95 "HgN/A
9:00 am84 °FPartly sunny.12 mph66%29.95 "HgN/A
8:00 am82 °FPartly sunny.10 mph70%29.92 "HgN/A
7:00 am79 °FScattered clouds.12 mph74%29.89 "HgN/A
6:00 am77 °FPassing clouds.10 mph79%29.86 "HgN/A
5:00 am77 °FPassing clouds.5 mph79%29.86 "HgN/A
4:00 am77 °FPassing clouds.7 mph83%29.86 "HgN/A
2:00 am77 °FPassing clouds.7 mph83%29.86 "HgN/A
12:00 am79 °FPassing clouds.8 mph79%29.89 "HgN/A
11:00 pm
Fri, Mar 27
79 °FPassing clouds.9 mph79%29.89 "HgN/A
Weather by CustomWeather, © 2020

See weather overview

Advertising